FW3057 Weather Reports


time (UTC)temp
C
wind
direction
speed
KPH
gust
KPH
rain 1hr
cm
rain 24hr
cm
rain mn
cm
humidity
%
barometer
mb
20260507194311 12 135 0.0 3.2 0.00 0.61 0.61 96 1013.2
20260507193311 12 314 1.6 1.6 0.00 0.61 0.61 96 1013.1
20260507192311 12 56 1.6 3.2 0.00 0.61 0.61 96 1013.1
20260507191311 12 46 0.0 3.2 0.00 0.61 0.61 96 1013.1
20260507190311 12 213 3.2 4.8 0.00 0.61 0.61 96 1013.0
20260507185311 12 165 3.2 4.8 0.00 0.61 0.61 96 1013.0
20260507184311 12 139 3.2 6.4 0.00 0.61 0.61 96 1013.0
20260507182311 12 117 3.2 6.4 0.00 0.61 0.61 96 1012.7
20260507175311 12 135 3.2 6.4 0.05 0.61 0.61 95 1012.7
20260507174311 12 117 3.2 8.0 0.05 0.61 0.61 95 1012.7
20260507173311 12 223 3.2 8.0 0.08 0.61 0.61 95 1012.8
20260507172311 12 172 3.2 4.8 0.10 0.61 0.61 95 1012.8
20260507171311 12 135 1.6 4.8 0.10 0.61 0.61 94 1013.0
20260507164311 12 217 6.4 14.5 0.08 0.56 0.56 94 1013.3
20260507162311 12 185 4.8 8.0 0.15 0.51 0.51 94 1013.1
20260507161311 12 1 1.6 6.4 0.23 0.51 0.51 94 1013.2
20260507160310 12 28 1.6 6.4 0.23 0.48 0.48 94 1013.1
20260507154310 13 178 1.6 6.4 0.23 0.48 0.48 94 1013.1
20260507153311 13 329 4.8 8.0 0.18 0.43 0.43 93 1013.4
20260507152312 13 288 14.5 19.3 0.10 0.36 0.36 93 1013.4
20260507151310 13 344 1.6 6.4 0.00 0.25 0.25 92 1013.3
20260507150310 13 56 6.4 8.0 0.00 0.25 0.25 92 1013.2
20260507145311 13 70 4.8 9.7 0.03 0.25 0.25 92 1013.2
20260507144310 13 89 6.4 11.3 0.10 0.25 0.25 92 1013.2
20260507143311 13 1 3.2 8.0 0.15 0.25 0.25 91 1013.2
20260507142310 13 8 4.8 11.3 0.18 0.25 0.25 91 1013.2
20260507141310 13 20 3.2 4.8 0.23 0.25 0.25 91 1013.4
20260507140311 13 135 0.0 3.2 0.25 0.25 0.25 90 1013.4
20260507135310 13 269 0.0 3.2 0.23 0.23 0.23 89 1013.5
20260507134310 13 269 0.0 3.2 0.15 0.15 0.15 88 1013.7
20260507133310 13 286 1.6 3.2 0.10 0.10 0.10 87 1013.7
20260507132310 14 161 1.6 8.0 0.08 0.08 0.08 86 1013.9
20260507130310 14 168 4.8 12.9 0.00 0.00 0.00 85 1013.7
20260507124310 14 89 1.6 6.4 0.00 0.00 0.00 87 1013.6
20260507123310 13 8 4.8 9.7 0.00 0.00 0.00 86 1013.8
20260507122310 13 329 4.8 12.9 0.00 0.00 0.00 84 1013.8
20260507121310 14 71 6.4 14.5 0.00 0.00 0.00 85 1013.9
20260507120310 13 360 8.0 12.9 0.00 0.00 0.00 85 1014.0
20260507115310 13 51 8.0 12.9 0.00 0.00 0.00 85 1014.0
20260507114310 13 84 6.4 14.5 0.00 0.00 0.00 84 1014.0
20260507113310 14 107 9.7 14.5 0.00 0.00 0.00 83 1014.1
20260507111310 15 127 12.9 20.9 0.00 0.00 0.00 83 1014.3
20260507110310 14 148 6.4 16.1 0.00 0.00 0.00 83 1014.4
20260507105310 14 178 8.0 14.5 0.00 0.00 0.00 84 1014.5
20260507104310 13 156 6.4 12.9 0.00 0.00 0.00 85 1014.6
20260507103310 13 142 6.4 14.5 0.00 0.00 0.00 86 1014.7
20260507102310 13 135 6.4 12.9 0.00 0.00 0.00 86 1014.7
20260507101310 12 89 3.2 11.3 0.00 0.00 0.00 86 1014.7
20260507100310 12 140 9.7 12.9 0.00 0.00 0.00 86 1014.7
20260507094310 12 110 6.4 9.7 0.00 0.00 0.00 86 1014.7
20260507093310 12 176 6.4 11.3 0.00 0.00 0.00 86 1014.7
20260507092310 12 128 6.4 12.9 0.00 0.00 0.00 85 1014.7
20260507085309 11 202 3.2 12.9 0.00 0.00 0.00 85 1014.7
20260507084310 11 150 6.4 11.3 0.00 0.00 0.00 85 1014.6
20260507083310 11 161 6.4 14.5 0.00 0.00 0.00 85 1014.6
20260507082309 11 241 3.2 12.9 0.00 0.00 0.00 86 1014.6
20260507080309 11 81 3.2 11.3 0.00 0.00 0.00 86 1014.6
20260507075310 11 152 6.4 12.9 0.00 0.00 0.00 86 1014.6
20260507074309 11 149 8.0 14.5 0.00 0.00 0.00 87 1014.4
20260507073310 10 143 4.8 16.1 0.00 0.00 0.00 88 1014.5
20260507072309 10 129 6.4 14.5 0.00 0.00 0.00 88 1014.3
20260507071309 10 135 6.4 12.9 0.00 0.00 0.00 88 1014.3
20260507070309 10 165 3.2 11.3 0.00 0.00 0.00 89 1014.2
20260507065309 10 168 6.4 14.5 0.00 0.00 0.00 89 1014.2
20260507064309 10 120 3.2 14.5 0.00 0.00 0.00 90 1014.2
20260507063309 10 155 8.0 12.9 0.00 0.00 0.00 91 1014.1
20260507062309 10 117 4.8 12.9 0.00 0.00 0.00 92 1014.1
20260507060309 10 46 6.4 12.9 0.00 0.00 0.00 94 1014.0
20260507055309 10 148 8.0 11.3 0.00 0.00 0.00 94 1014.0
20260507054309 10 98 1.6 6.4 0.00 0.00 0.00 94 1013.8
20260507053309 10 124 3.2 8.0 0.00 0.00 0.00 94 1013.8
20260507052309 10 145 3.2 8.0 0.00 0.00 0.00 94 1013.7
20260507051309 10 152 4.8 9.7 0.00 0.00 0.00 94 1013.9
20260507045309 10 167 3.2 8.0 0.00 0.00 0.00 94 1013.7
20260507044309 10 117 1.6 6.4 0.00 0.00 0.00 94 1013.6
20260507043311 10 201 4.8 9.7 0.00 0.00 0.00 94 1013.5
20260507042311 10 127 3.2 6.4 0.00 0.00 0.00 93 1013.5
20260507041311 10 140 1.6 6.4 0.00 0.00 0.00 93 1013.6
20260507040310 10 158 4.8 8.0 0.00 0.00 0.00 93 1013.6
20260507034311 10 122 4.8 6.4 0.00 0.00 0.00 93 1013.6
20260507033311 10 175 4.8 6.4 0.00 0.00 0.00 93 1013.5
20260507032311 10 197 3.2 4.8 0.00 0.00 0.00 93 1013.5
20260507031311 10 178 1.6 4.8 0.00 0.00 0.00 93 1013.4
20260507030310 10 152 1.6 4.8 0.00 0.00 0.00 93 1013.6
20260507025310 10 142 3.2 4.8 0.00 0.00 0.00 93 1013.6
20260507024311 10 135 1.6 4.8 0.00 0.00 0.00 93 1013.6
20260507023311 10 169 1.6 4.8 0.00 0.00 0.00 93 1013.6
20260507021311 10 178 1.6 4.8 0.00 0.00 0.00 92 1013.5
20260507020310 10 142 1.6 4.8 0.00 0.00 0.00 92 1013.6
20260507015310 11 161 1.6 3.2 0.00 0.00 0.00 92 1013.7
20260507014310 11 193 1.6 3.2 0.00 0.00 0.00 93 1013.6
20260507013310 11 152 1.6 3.2 0.00 0.00 0.00 93 1013.5
20260507012310 11 170 1.6 3.2 0.00 0.00 0.00 92 1013.7
20260507010310 11 178 1.6 4.8 0.00 0.00 0.00 92 1013.6
20260507005310 11 168 1.6 3.2 0.00 0.00 0.00 92 1013.7
20260507004310 11 108 0.0 3.2 0.00 0.00 0.00 92 1013.7
20260507003310 11 74 1.6 4.8 0.00 0.00 0.00 92 1013.7
20260507002310 11 68 3.2 6.4 0.00 0.00 0.00 91 1013.8
20260507001310 11 63 1.6 3.2 0.00 0.00 0.00 91 1013.9
20260506235310 11 76 1.6 4.8 0.00 0.00 0.00 91 1013.9
20260506234310 11 89 1.6 4.8 0.00 0.00 0.00 91 1014.1
20260506233310 11 70 3.2 6.4 0.00 0.00 0.00 90 1013.8
20260506232310 11 107 1.6 4.8 0.00 0.00 0.00 90 1014.0
20260506231310 11 102 3.2 6.4 0.00 0.00 0.00 90 1014.1
20260506230310 11 135 3.2 6.4 0.00 0.00 0.00 90 1014.1
20260506225310 11 102 3.2 6.4 0.00 0.00 0.00 89 1014.1
20260506223310 11 63 1.6 4.8 0.00 0.00 0.00 89 1014.1
20260506222310 11 89 3.2 6.4 0.00 0.00 0.00 89 1014.2
20260506221310 11 98 3.2 8.0 0.00 0.00 0.00 89 1014.2
20260506220310 11 35 3.2 8.0 0.00 0.00 0.00 89 1014.3
20260506215310 11 89 3.2 6.4 0.00 0.00 0.00 89 1014.1
20260506214310 11 89 4.8 6.4 0.00 0.00 0.00 89 1014.1
20260506213310 11 72 3.2 9.7 0.00 0.00 0.00 89 1014.1
20260506212310 11 83 3.2 8.0 0.00 0.00 0.00 89 1014.1
20260506211310 11 107 4.8 8.0 0.00 0.00 0.00 89 1014.2
20260506210310 11 61 6.4 9.7 0.00 0.00 0.00 88 1014.1
20260506205310 11 114 3.2 8.0 0.00 0.00 0.00 88 1014.1
20260506204310 11 108 3.2 8.0 0.00 0.00 0.00 88 1014.1
20260506203310 11 135 3.2 4.8 0.00 0.00 0.00 89 1014.1
20260506202310 11 100 1.6 4.8 0.00 0.00 0.00 89 1014.1
20260506200310 12 117 3.2 4.8 0.00 0.00 0.00 88 1013.9